CW8733 Weather Reports


Display with metric or nautical units.
time (UTC)temp
F
wind
direction
speed
MPH
gust
MPH
rain 1hr
in
rain 24hr
in
rain mn
in
humidity
%
barometer
mb
20260507114017 56 0 4.0 7.0 0.00 0.00 0.00 50 1015.6
20260507113017 54 23 4.0 6.0 0.00 0.00 0.00 51 1015.5
20260507112017 53 45 3.0 5.0 0.00 0.00 0.00 54 1015.5
20260507111017 53 45 3.0 4.0 0.00 0.00 0.00 56 1015.5
20260507110017 54 45 2.0 3.0 0.00 0.00 0.00 55 1015.6
20260507105017 54 90 1.0 2.0 0.00 0.00 0.00 54 1015.5
20260507104017 53 180 1.0 4.0 0.00 0.00 0.00 55 1015.3
20260507103017 53 0.0 2.0 0.00 0.00 0.00 57 1015.2
20260507102017 54 23 1.0 3.0 0.00 0.00 0.00 56 1015.4
20260507101017 54 23 1.0 3.0 0.00 0.00 0.00 56 1015.4
20260507100017 54 45 2.0 3.0 0.00 0.00 0.00 56 1015.4
20260507095017 54 23 2.0 4.0 0.00 0.00 0.00 57 1015.6
20260507094017 54 23 3.0 4.0 0.00 0.00 0.00 58 1015.6
20260507093016 54 23 3.0 4.0 0.00 0.00 0.00 56 1015.6
20260507092036 55 45 2.0 3.0 0.00 0.00 0.00 54 1015.7
20260507091016 55 0.0 3.0 0.00 0.00 0.00 54 1015.8
20260507090016 56 0.0 0.0 0.00 0.00 0.00 52 1016.0
20260507085017 57 0.0 0.0 0.00 0.00 0.00 50 1015.9
20260507084016 57 180 1.0 2.0 0.00 0.00 0.00 49 1016.0
20260507083017 59 0.0 1.0 0.00 0.00 0.00 46 1016.1
20260507082016 60 270 1.0 3.0 0.00 0.00 0.00 44 1016.2
20260507081017 61 293 1.0 3.0 0.00 0.00 0.00 40 1016.4
20260507080017 62 338 1.0 4.0 0.00 0.00 0.00 39 1016.2
20260507075016 61 23 3.0 5.0 0.00 0.00 0.00 39 1016.1
20260507074017 61 0 3.0 6.0 0.00 0.00 0.00 39 1016.1
20260507073016 61 23 3.0 6.0 0.00 0.00 0.00 41 1016.0
20260507072017 62 338 3.0 6.0 0.00 0.00 0.00 42 1016.1
20260507071016 62 68 2.0 5.0 0.00 0.00 0.00 40 1016.0
20260507070016 62 45 3.0 5.0 0.00 0.00 0.00 39 1016.0
20260507065017 61 0 4.0 6.0 0.00 0.00 0.00 41 1015.8
20260507064016 61 0 4.0 5.0 0.00 0.00 0.00 44 1015.9
20260507063017 60 45 4.0 6.0 0.00 0.00 0.00 46 1015.8
20260507062017 61 23 3.0 4.0 0.00 0.00 0.00 46 1015.7
20260507061036 62 338 1.0 2.0 0.00 0.00 0.00 48 1015.9
20260507060017 63 23 1.0 3.0 0.00 0.00 0.00 44 1015.8
20260507055016 64 113 2.0 4.0 0.00 0.00 0.00 37 1015.7
20260507054016 64 45 2.0 4.0 0.00 0.00 0.00 42 1015.6
20260507053016 66 338 1.0 3.0 0.00 0.00 0.00 40 1015.7
20260507052036 66 0 2.0 6.0 0.00 0.00 0.00 33 1015.5
20260507051016 66 45 4.0 8.0 0.00 0.00 0.00 34 1015.4
20260507050016 65 45 4.0 7.0 0.00 0.00 0.00 35 1015.4
20260507045036 65 45 4.0 6.0 0.00 0.00 0.00 37 1015.2
20260507044016 65 45 2.0 5.0 0.00 0.00 0.00 41 1015.2
20260507043016 66 68 1.0 3.0 0.00 0.00 0.00 38 1015.2
20260507042016 66 68 3.0 4.0 0.00 0.00 0.00 36 1015.1
20260507041016 66 45 3.0 5.0 0.00 0.00 0.00 37 1015.1
20260507040016 66 45 3.0 6.0 0.00 0.00 0.00 37 1015.0
20260507035016 66 90 2.0 5.0 0.00 0.00 0.00 35 1014.7
20260507034016 66 0.0 1.0 0.00 0.00 0.00 36 1014.6
20260507033016 67 45 2.0 5.0 0.00 0.00 0.00 35 1014.5
20260507032016 67 0.0 3.0 0.00 0.00 0.00 33 1014.4
20260507031016 68 113 2.0 3.0 0.00 0.00 0.00 34 1014.6
20260507030036 69 158 1.0 3.0 0.00 0.00 0.00 29 1014.4
20260507025016 69 135 2.0 4.0 0.00 0.00 0.00 30 1013.9
20260507024016 70 135 2.0 3.0 0.00 0.00 0.00 31 1014.1
20260507023016 71 180 1.0 2.0 0.00 0.00 0.00 31 1014.0
20260507022016 73 0.0 2.0 0.00 0.00 0.00 28 1013.7
20260507021016 74 203 2.0 3.0 0.00 0.00 0.00 26 1013.8
20260507020016 75 248 2.0 4.0 0.00 0.00 0.00 23 1013.7
20260507015016 76 225 3.0 5.0 0.00 0.00 0.00 23 1013.3
20260507014016 77 225 4.0 8.0 0.00 0.00 0.00 22 1013.3
20260507013016 77 248 2.0 5.0 0.00 0.00 0.00 22 1013.2
20260507012016 77 225 4.0 7.0 0.00 0.00 0.00 22 1013.5
20260507011016 78 248 5.0 8.0 0.00 0.00 0.00 21 1013.6
20260507010036 78 270 3.0 7.0 0.00 0.00 0.00 22 1013.5
20260507005036 78 270 4.0 7.0 0.00 0.00 0.00 22 1013.5
20260507004016 78 270 5.0 8.0 0.00 0.00 0.00 22 1013.5
20260507003016 78 270 4.0 6.0 0.00 0.00 0.00 22 1013.4
20260507002016 78 248 3.0 6.0 0.00 0.00 0.00 21 1013.6
20260507001016 78 270 6.0 11.0 0.00 0.00 0.00 22 1013.6
20260507000036 78 248 6.0 10.0 0.00 0.00 0.00 22 1013.6
20260506235016 78 225 7.0 12.0 0.00 0.00 0.00 22 1013.6
20260506234016 78 248 8.0 14.0 0.00 0.00 0.00 21 1013.6
20260506233016 79 225 5.0 8.0 0.00 0.00 0.00 23 1013.6
20260506232016 79 248 5.0 10.0 0.00 0.00 0.00 23 1013.7
20260506231016 79 203 3.0 9.0 0.00 0.00 0.00 23 1013.8
20260506230016 79 248 6.0 11.0 0.00 0.00 0.00 23 1014.0
20260506225016 79 180 4.0 10.0 0.00 0.00 0.00 23 1014.2
20260506224016 79 225 3.0 10.0 0.00 0.00 0.00 23 1014.3
20260506223016 78 270 6.0 14.0 0.00 0.00 0.00 24 1014.1
20260506222016 78 270 5.0 10.0 0.00 0.00 0.00 24 1014.4
20260506221016 79 270 7.0 13.0 0.00 0.00 0.00 25 1014.5
20260506220016 79 293 7.0 10.0 0.00 0.00 0.00 25 1014.5
20260506215016 78 248 6.0 11.0 0.00 0.00 0.00 26 1014.6
20260506214016 79 293 5.0 10.0 0.00 0.00 0.00 25 1014.9
20260506213036 78 293 5.0 11.0 0.00 0.00 0.00 26 1014.9
20260506212016 78 315 3.0 7.0 0.00 0.00 0.00 27 1014.9
20260506211016 78 158 4.0 7.0 0.00 0.00 0.00 27 1015.1
20260506210056 77 180 5.0 10.0 0.00 0.00 0.00 26 1015.3
20260506205016 78 225 6.0 12.0 0.00 0.00 0.00 26 1015.7
20260506204016 78 315 4.0 12.0 0.00 0.00 0.00 27 1015.8
20260506203016 76 293 7.0 12.0 0.00 0.00 0.00 28 1015.8
20260506202016 76 293 8.0 12.0 0.00 0.00 0.00 29 1015.9
20260506201016 76 225 4.0 9.0 0.00 0.00 0.00 27 1016.0
20260506200016 76 270 7.0 13.0 0.00 0.00 0.00 28 1016.1
20260506195016 76 180 3.0 7.0 0.00 0.00 0.00 29 1016.3
20260506194016 74 248 3.0 10.0 0.00 0.00 0.00 29 1016.2
20260506193016 74 270 5.0 11.0 0.00 0.00 0.00 30 1016.4
20260506192016 74 248 5.0 10.0 0.00 0.00 0.00 30 1016.4
20260506191016 74 248 3.0 6.0 0.00 0.00 0.00 30 1016.6
20260506190016 74 315 4.0 9.0 0.00 0.00 0.00 30 1016.6
20260506185016 74 293 3.0 7.0 0.00 0.00 0.00 31 1016.6
20260506184016 73 315 2.0 6.0 0.00 0.00 0.00 31 1016.8
20260506183056 73 225 3.0 6.0 0.00 0.00 0.00 31 1016.9
20260506182056 72 315 3.0 7.0 0.00 0.00 0.00 32 1017.2
20260506181016 72 180 2.0 7.0 0.00 0.00 0.00 32 1017.3
20260506180056 70 225 3.0 9.0 0.00 0.00 0.00 34 1017.2
20260506175016 70 338 2.0 6.0 0.00 0.00 0.00 36 1017.2
20260506174016 70 338 3.0 8.0 0.00 0.00 0.00 36 1017.3
20260506173016 69 315 6.0 11.0 0.00 0.00 0.00 38 1017.3
20260506172016 69 270 5.0 9.0 0.00 0.00 0.00 40 1017.3
20260506171017 68 113 1.0 10.0 0.00 0.00 0.00 41 1017.3
20260506170016 67 225 4.0 7.0 0.00 0.00 0.00 42 1017.0
20260506165016 67 225 5.0 9.0 0.00 0.00 0.00 43 1017.1
20260506164036 66 270 3.0 7.0 0.00 0.00 0.00 46 1017.1
20260506163016 66 270 4.0 9.0 0.00 0.00 0.00 48 1017.0
20260506162016 65 270 3.0 6.0 0.00 0.00 0.00 47 1017.0
20260506161016 65 248 5.0 8.0 0.00 0.00 0.00 50 1017.0
20260506160016 64 293 3.0 5.0 0.00 0.00 0.00 50 1016.9
20260506155036 64 248 4.0 7.0 0.00 0.00 0.00 52 1017.2
20260506154016 63 225 4.0 8.0 0.00 0.00 0.00 51 1017.0
20260506153036 63 248 2.0 5.0 0.00 0.00 0.00 51 1016.9
20260506152016 63 203 3.0 5.0 0.00 0.00 0.00 53 1017.1
20260506151016 62 248 1.0 2.0 0.00 0.00 0.00 52 1017.0
20260506150016 62 270 2.0 4.0 0.00 0.00 0.00 53 1017.0
20260506145016 62 203 1.0 3.0 0.00 0.00 0.00 54 1017.0
20260506144016 61 248 2.0 3.0 0.00 0.00 0.00 57 1017.1
20260506143016 60 0.0 2.0 0.00 0.00 0.00 61 1016.9
20260506142016 58 180 1.0 3.0 0.00 0.00 0.00 66 1017.0
20260506141036 57 0.0 0.0 0.00 0.00 0.00 67 1016.9
20260506140016 56 0.0 0.0 0.00 0.00 0.00 72 1016.7
20260506135016 55 0.0 0.0 0.00 0.00 0.00 78 1016.6
20260506134035 52 0.0 2.0 0.00 0.00 0.00 83 1016.3
20260506133016 50 0.0 0.0 0.00 0.00 0.00 85 1016.1
20260506132016 49 68 1.0 2.0 0.00 0.00 0.00 85 1015.9
20260506131015 48 68 1.0 2.0 0.00 0.00 0.00 84 1015.8
20260506130016 49 0.0 0.0 0.00 0.00 0.00 84 1015.8
20260506125015 49 180 1.0 2.0 0.00 0.00 0.00 82 1015.8
20260506124015 49 0.0 0.0 0.00 0.00 0.00 81 1015.8
20260506123036 49 23 2.0 4.0 0.00 0.01 0.00 81 1015.7
20260506122015 50 23 2.0 3.0 0.00 0.01 0.00 80 1015.5
20260506121056 50 23 2.0 3.0 0.00 0.01 0.00 79 1015.6
20260506120015 50 23 2.0 4.0 0.00 0.01 0.00 79 1015.5
20260506115015 50 23 2.0 3.0 0.00 0.01 0.00 79 1015.4